Weather History for Casper, WY

Change the Weather History Date:

Monday, November 18, 2013

  Actual Average Record
Temperature  
Mean Temperature 41 °F 32 °F  
Max Temperature 55 °F 43 °F 68 °F (2008)
Min Temperature 27 °F 21 °F 0 °F (1969)
Degree Days  
Heating Degree Days 24 33  
Month to date heating degree days 509 523  
Since 1 July heating degree days 1398 1422  
Cooling Degree Days 0 0  
Month to date cooling degree days 0 0  
Year to date cooling degree days 618 422  
Moisture  
Dew Point 21 °F    
Average Humidity 41    
Maximum Humidity 59    
Minimum Humidity 22    
Precipitation  
Precipitation 0.00 in 0.03 in 0.68 in (1981)
Month to date precipitation 0.01 0.51  
Year to date precipitation 13.71 11.78  
Snow  
Snow 0.00 in 0.40 in - ()
Month to date snowfall 0.1 6.1  
Since 1 July snowfall 21.3 15.3  
Since 1 September snowfall 21.3 15.3  
Snow Depth 0.00 in    
Sea Level Pressure  
Sea Level Pressure 30.00 in    
Wind  
Wind Speed 20 mph (SW)    
Max Wind Speed 31 mph    
Max Gust Speed 39 mph    
Visibility 10 miles    
Events      
T = Trace of Precipitation, MM = Missing Value Source: NWS Daily Summary

Daily Weather History Graph

Daily Weather History Graph

Search for Another Location

Airport:

Trip Planner

Search our weather history database for the weather conditions in past years. The results will help you decide how hot, cold, wet, or windy it might be!

Date:

Astronomy

Nov. 18, 2013 Rise Set
Actual Time 7:02 AM MST 4:39 PM MST
Civil Twilight 6:31 AM MST 5:10 PM MST
Nautical Twilight 5:56 AM MST 5:44 PM MST
Astronomical Twilight 5:23 AM MST 6:18 PM MST
Moon 5:43 PM MST (11/18) 7:53 AM MST (11/18)
Length of Visible Light 10h 39m
Length of Day
9h 37m
Full, 99% of the Moon is Illuminated
Nov 18
Full
Nov 25
Last Quarter
Dec 2
New
Dec 9
First Quarter
Dec 17
Full

Hourly Weather History & Observations

Time (MST) Temp. Windchill Dew Point Humidity Pressure Visibility Wind Dir Wind Speed Gust Speed Precip Events Conditions
12:53 AM 30.9 °F 20.7 °F 16.0 °F 54% 30.05 in 10.0 mi SW 13.8 mph - N/A   Clear
1:53 AM 32.0 °F 22.5 °F 17.1 °F 54% 30.05 in 10.0 mi WSW 12.7 mph - N/A   Clear
2:53 AM 30.9 °F - 17.1 °F 57% 30.05 in 10.0 mi North - - N/A   Clear
3:53 AM 33.1 °F 23.0 °F 19.0 °F 56% 30.07 in 10.0 mi SW 15.0 mph - N/A   Clear
4:53 AM 33.1 °F - 19.9 °F 59% 30.06 in 10.0 mi North - - N/A   Clear
5:53 AM 34.0 °F 22.7 °F 19.9 °F 56% 30.05 in 10.0 mi WSW 19.6 mph - N/A   Clear
6:53 AM 32.0 °F - 19.9 °F 61% 30.11 in 10.0 mi North - - N/A   Clear
7:53 AM 34.0 °F 26.6 °F 19.9 °F 56% 30.11 in 10.0 mi WSW 9.2 mph - N/A   Clear
8:53 AM 42.1 °F 32.6 °F 21.0 °F 43% 30.07 in 10.0 mi SW 23.0 mph 31.1 mph N/A   Clear
9:53 AM 46.0 °F 37.8 °F 21.0 °F 37% 30.06 in 10.0 mi SW 23.0 mph 32.2 mph N/A   Clear
10:53 AM 50.0 °F - 19.0 °F 29% 30.04 in 10.0 mi SW 27.6 mph 33.4 mph N/A   Clear
11:53 AM 53.1 °F - 18.0 °F 25% 30.01 in 10.0 mi SW 28.8 mph 35.7 mph N/A   Clear
12:53 PM 54.0 °F - 17.1 °F 23% 30.00 in 10.0 mi SW 24.2 mph 32.2 mph N/A   Clear
1:53 PM 55.0 °F - 18.0 °F 23% 29.98 in 10.0 mi SW 27.6 mph 36.8 mph N/A   Clear
2:53 PM 54.0 °F - 19.9 °F 26% 29.98 in 10.0 mi SSW 23.0 mph 31.1 mph N/A   Clear
3:53 PM 52.0 °F - 21.9 °F 31% 29.98 in 10.0 mi SW 21.9 mph 29.9 mph N/A   Clear
4:53 PM 46.9 °F - 21.0 °F 36% 30.00 in 10.0 mi SSW 15.0 mph - N/A   Clear
5:53 PM 46.9 °F - 21.9 °F 37% 29.98 in 10.0 mi SSW 20.7 mph 26.5 mph N/A   Clear
6:53 PM 46.9 °F - 25.0 °F 42% 29.98 in 10.0 mi SSW 21.9 mph 32.2 mph N/A   Clear
7:53 PM 46.0 °F 37.8 °F 25.0 °F 44% 29.96 in 10.0 mi SSW 23.0 mph 32.2 mph N/A   Clear
8:53 PM 46.0 °F 39.3 °F 24.1 °F 42% 29.94 in 10.0 mi SSW 16.1 mph 26.5 mph N/A   Clear
9:45 PM 46.4 °F 38.3 °F 23.0 °F 40% 29.97 in 10.0 mi SSW 23.0 mph - N/A   Mostly Cloudy
9:53 PM 46.0 °F 39.0 °F 24.1 °F 42% 29.91 in 10.0 mi SSW 17.3 mph 23.0 mph N/A   Clear
10:53 PM 46.0 °F 38.5 °F 24.1 °F 42% 29.88 in 10.0 mi SSW 19.6 mph 27.6 mph N/A   Clear
11:53 PM 46.0 °F 38.5 °F 23.0 °F 40% 29.86 in 10.0 mi SSW 19.6 mph - N/A   Clear